Grayling, MI

12:04 PM EST on December 03, 2016 (GMT -0500)
Grayling

Weather History for KGOV - October, 2012

Change the Weather History Date:

Thursday, October 4, 2012

  Actual Average (KHTL) Record (KHTL)
Temperature  
Mean Temperature 66 °F 50 °F  
Max Temperature 75 °F 61 °F 87 °F (1922)
Min Temperature 57 °F 39 °F 23 °F (2010)
Degree Days  
Heating Degree Days 0 15  
Month to date heating degree days 58  
Since 1 July heating degree days 439  
Cooling Degree Days 1 0  
Month to date cooling degree days 0  
Year to date cooling degree days 285  
Growing Degree Days 16 (Base 50)    
Moisture  
Dew Point 57 °F    
Average Humidity 81    
Maximum Humidity 100    
Minimum Humidity 53    
Precipitation  
Precipitation 0.00 in 0.09 in 2.08 in (1991)
Month to date precipitation 0.37  
Year to date precipitation 22.59  
Snow  
Snow 0.00 in 0.00 in - ()
Month to date snowfall 0.0  
Since 1 July snowfall 0.0  
Snow Depth -    
Sea Level Pressure  
Sea Level Pressure 29.96 in    
Wind  
Wind Speed 4 mph (SW)    
Max Wind Speed 16 mph    
Max Gust Speed 26 mph    
Visibility 8 miles    
Events Rain    
T = Trace of Precipitation, MM = Missing Value Source: NWS Daily Summary

Daily Weather History Graph

Daily Weather History Graph

Search for Another Location

Airport or City:

Trip Planner

Search our weather history database for the weather conditions in past years. The results will help you decide how hot, cold, wet, or windy it might be!

Date:

Astronomy

Oct. 04, 2012 Rise Set
Actual Time 7:41 AM EDT 7:13 PM EDT
Civil Twilight 7:11 AM EDT 7:42 PM EDT
Nautical Twilight 6:38 AM EDT 8:15 PM EDT
Astronomical Twilight 6:03 AM EDT 8:49 PM EDT
Moon 9:36 PM EDT (10/4) 12:08 PM EDT (10/4)
Length of Visible Light 12h 30m
Length of Day
11h 31m
Waning Gibbous, 82% of the Moon is Illuminated
Oct 4
Waning Gibbous
Oct 8
Last Quarter
Oct 15
New
Oct 21
First Quarter
Oct 29
Full

Hourly Weather History & Observations

Time (EDT) Temp. Dew Point Humidity Pressure Visibility Wind Dir Wind Speed Gust Speed Precip Events Conditions
12:11 AM 57.4 °F 57.4 °F 100% 30.02 in 5.0 mi SSE 3.5 mph - N/A   Overcast
12:31 AM 57.4 °F 57.4 °F 100% 30.02 in 5.0 mi South 3.5 mph - N/A   Overcast
12:51 AM 57.4 °F 57.4 °F 100% 30.01 in 7.0 mi Calm Calm - N/A   Overcast
1:11 AM 57.7 °F 57.7 °F 100% 30.01 in 5.0 mi Calm Calm - N/A   Light Drizzle
1:31 AM 57.4 °F 57.4 °F 100% 30.00 in 5.0 mi Calm Calm - N/A Rain Light Rain
1:51 AM 57.4 °F 57.4 °F 100% 30.01 in 5.0 mi Calm Calm - N/A   Drizzle
2:11 AM 57.4 °F 57.4 °F 100% 30.01 in 5.0 mi Calm Calm - N/A   Drizzle
2:31 AM 57.4 °F 57.4 °F 100% 30.01 in 5.0 mi Calm Calm - N/A   Light Drizzle
2:52 AM 57.4 °F 57.4 °F 100% 30.01 in 7.0 mi Calm Calm - N/A   Overcast
3:12 AM 57.4 °F 57.4 °F 100% 30.00 in 7.0 mi SSW 4.6 mph - N/A   Overcast
3:32 AM 57.4 °F 57.4 °F 100% 29.99 in 5.0 mi SSW 3.5 mph - N/A   Overcast
3:52 AM 57.4 °F 57.4 °F 100% 29.99 in 5.0 mi Calm Calm - N/A   Overcast
4:12 AM 57.4 °F 57.4 °F 100% 29.98 in 5.0 mi Calm Calm - N/A   Overcast
4:32 AM 57.4 °F 57.4 °F 100% 29.98 in 4.0 mi Calm Calm - N/A   Overcast
4:52 AM 57.4 °F 57.4 °F 100% 29.98 in 5.0 mi Calm Calm - N/A   Overcast
5:12 AM 57.4 °F 57.4 °F 100% 29.98 in 4.0 mi Calm Calm - N/A   Overcast
5:32 AM 57.4 °F 57.4 °F 100% 29.98 in 4.0 mi Calm Calm - N/A   Overcast
5:52 AM 57.4 °F 57.4 °F 100% 29.98 in 3.0 mi Calm Calm - N/A   Heavy Drizzle
6:13 AM 57.4 °F 57.4 °F 100% 29.98 in 3.0 mi Calm Calm - N/A Rain Light Rain
6:53 AM 57.4 °F 57.4 °F 100% 29.98 in 3.0 mi SSW 4.6 mph - N/A Rain Heavy Rain
7:13 AM 57.4 °F 57.4 °F 100% 29.97 in 4.0 mi SSW 3.5 mph - N/A Rain Rain
7:33 AM 57.4 °F 57.4 °F 100% 29.97 in 4.0 mi SSW 3.5 mph - N/A Rain Heavy Rain
7:53 AM 57.4 °F 57.4 °F 100% 29.97 in 5.0 mi SW 3.5 mph - N/A Rain Rain
8:13 AM 57.4 °F 57.4 °F 100% 29.98 in 5.0 mi SW 5.8 mph - N/A Rain Rain
8:33 AM 57.4 °F 57.4 °F 100% 29.98 in 3.0 mi Calm Calm - N/A Rain Rain
8:53 AM 57.7 °F 57.7 °F 100% 29.97 in 4.0 mi WSW 3.5 mph - N/A Rain Light Rain
9:14 AM 59.0 °F 59.0 °F 100% 29.98 in 10.0 mi WSW 5.8 mph - N/A   Overcast
9:34 AM 59.4 °F 59.4 °F 100% 29.98 in 7.0 mi WSW 4.6 mph - N/A   Overcast
9:54 AM 59.9 °F 59.9 °F 100% 29.98 in 5.0 mi WSW 6.9 mph - N/A   Overcast
10:14 AM 59.9 °F 59.9 °F 100% 29.98 in 7.0 mi WSW 4.6 mph - N/A   Overcast
10:34 AM 59.9 °F 59.9 °F 100% 29.98 in 10.0 mi WSW 6.9 mph - N/A   Overcast
10:54 AM 61.2 °F 59.7 °F 95% 29.98 in 10.0 mi WSW 8.1 mph - N/A   Mostly Cloudy
11:14 AM 61.9 °F 57.9 °F 87% 29.99 in 10.0 mi WSW 8.1 mph - N/A   Scattered Clouds
11:34 AM 63.0 °F 58.1 °F 84% 29.99 in 10.0 mi WSW 6.9 mph - N/A   Scattered Clouds
11:54 AM 63.9 °F 57.9 °F 81% 29.99 in 10.0 mi WSW 4.6 mph - N/A   Scattered Clouds
12:15 PM 65.5 °F 57.9 °F 77% 29.98 in 10.0 mi WSW 9.2 mph - N/A   Clear
12:35 PM 67.5 °F 58.6 °F 73% 29.98 in 10.0 mi SW 6.9 mph - N/A   Scattered Clouds
12:55 PM 70.0 °F 59.9 °F 70% 29.98 in 10.0 mi SW 8.1 mph - N/A   Scattered Clouds
1:10 PM 70.0 °F 57.7 °F 65% 29.97 in 10.0 mi SW 8.1 mph - N/A   Clear
1:30 PM 70.0 °F 57.6 °F 65% 29.97 in 10.0 mi SSW 8.1 mph - N/A   Clear
1:50 PM 70.0 °F 57.0 °F 63% 29.96 in 10.0 mi SSW 6.9 mph 17.3 mph N/A   Clear
2:30 PM 71.1 °F 56.3 °F 60% 29.95 in 10.0 mi South 11.5 mph - N/A   Clear
2:50 PM 71.2 °F 55.8 °F 58% 29.94 in 10.0 mi SSW 5.8 mph 16.1 mph N/A   Clear
3:11 PM 72.5 °F 56.1 °F 56% 29.95 in 10.0 mi SSW 8.1 mph 17.3 mph N/A   Clear
3:31 PM 74.8 °F 58.6 °F 57% 29.94 in 10.0 mi South 10.4 mph - N/A   Clear
3:51 PM 73.4 °F 57.4 °F 57% 29.93 in 10.0 mi SSW 5.8 mph - N/A   Clear
4:11 PM 75.2 °F 57.9 °F 55% 29.92 in 10.0 mi SW 10.4 mph 16.1 mph N/A   Clear
4:31 PM 75.2 °F 57.0 °F 53% 29.91 in 10.0 mi SSW 11.5 mph 17.3 mph N/A   Clear
4:51 PM 75.2 °F 57.2 °F 53% 29.91 in 10.0 mi South 10.4 mph 16.1 mph N/A   Clear
5:11 PM 72.5 °F 54.9 °F 54% 29.91 in 10.0 mi South 6.9 mph - N/A   Scattered Clouds
5:31 PM 71.1 °F 53.6 °F 54% 29.91 in 10.0 mi South 8.1 mph - N/A   Overcast
5:51 PM 71.2 °F 53.1 °F 53% 29.92 in 10.0 mi SSW 12.7 mph 17.3 mph N/A   Mostly Cloudy
6:12 PM 70.0 °F 52.5 °F 54% 29.92 in 10.0 mi SSW 9.2 mph - N/A   Mostly Cloudy
6:32 PM 70.0 °F 52.7 °F 54% 29.92 in 10.0 mi SSW 8.1 mph - N/A   Overcast
6:52 PM 70.0 °F 52.7 °F 54% 29.91 in 10.0 mi SW 11.5 mph 17.3 mph N/A   Overcast
7:12 PM 70.0 °F 52.7 °F 54% 29.92 in 10.0 mi SSW 8.1 mph - N/A   Overcast
7:32 PM 70.0 °F 54.7 °F 58% 29.92 in 10.0 mi SW 12.7 mph 26.5 mph N/A   Overcast
7:52 PM 70.0 °F 56.5 °F 62% 29.92 in 10.0 mi SW 13.8 mph 25.3 mph N/A   Overcast
8:12 PM 64.9 °F 57.6 °F 77% 29.91 in 10.0 mi SSW 9.2 mph 17.3 mph N/A   Overcast
8:32 PM 64.9 °F 57.4 °F 76% 29.91 in 10.0 mi SSW 9.2 mph 18.4 mph N/A   Overcast
8:52 PM 64.9 °F 57.6 °F 77% 29.91 in 10.0 mi SSW 9.2 mph - N/A   Mostly Cloudy
10:13 PM 63.0 °F 54.0 °F 72% 29.91 in 10.0 mi WSW 11.5 mph 24.2 mph N/A   Mostly Cloudy
10:33 PM 62.6 °F 51.4 °F 67% 29.91 in 10.0 mi WSW 13.8 mph 20.7 mph N/A   Mostly Cloudy
10:53 PM 62.4 °F 51.8 °F 68% 29.92 in 10.0 mi WSW 10.4 mph 17.3 mph N/A   Overcast
11:13 PM 61.2 °F 50.2 °F 67% 29.91 in 10.0 mi West 6.9 mph 20.7 mph N/A   Overcast
11:33 PM 60.3 °F 47.1 °F 62% 29.92 in 10.0 mi WSW 11.5 mph - N/A   Overcast
11:53 PM 59.9 °F 45.9 °F 60% 29.92 in 10.0 mi WSW 16.1 mph 23.0 mph N/A   Overcast